Location: Blangy-Tronville
(49.8790°N, 2.4226°E)
Time: 00:03:34
(UTC+00:00)

SKYMED 2 - Pass Details

Date: 18 November 2025
Orbit: 621 x 623 km, 97.9° (Epoch: 05 December)

Event Time Altitude Azimuth Distance (km) Brightness Sun altitude
Exits shadow 18:03:25 15° 17° (NNE) 1,673 5.5 -19.1°
Maximum altitude 18:06:58 79° 103° (ESE) 641 3.4 -19.7°
Drops below altitude 10° 18:11:18 10° 191° (S) 1,987 6.3 -20.4°
Sets 18:13:29 0° 192° (SSW) 2,888 7.2 -20.7°
